Date String (YYYY-MM-DD hh:mm:ss) UTC,Instrument flags,Ambient pressure (hPa),Sample flow (lpm),Bypass flow (lpm),Sample temperature (°C),Ambient temperature (°C),ASC tube jacket temperature (°C),LED temperature (°C),Box temperature (°C),Sample RH (%),Mass concentration (μg/m³),Mass concentration (μg/m³)
DateTimeUTC,F1_M11,P_M11,Q1_M11,Q2_M11,T1_M11,T2_M11,T3_M11,T4_M11,T5_M11,U1_M11,X0_M11,X2_M11
2021-08-14 13:00:00,,0834.7,5.00,0.00,29.9,28.7,00.0,38.9,31.7,32.1,0023.08,0011.47
2021-08-14 13:01:00,,0834.7,4.99,0.00,29.9,28.8,00.0,39.0,31.7,30.7,0022.81,0011.35
2021-08-14 13:02:00,,0834.7,5.01,0.00,29.9,28.8,00.0,39.0,31.7,30.3,0021.86,0011.31
2021-08-14 13:03:00,,0834.7,4.99,0.00,29.9,28.9,00.0,39.0,31.7,29.8,0021.04,0011.33
2021-08-14 13:04:00,,0834.7,4.99,0.00,30.0,28.9,00.0,39.0,31.8,29.5,0021.24,0011.43
2021-08-14 13:05:00,,0834.7,5.00,0.00,30.0,29.0,00.0,39.0,31.8,30.2,0021.37,0011.52
2021-08-14 13:06:00,,0834.7,5.00,0.00,30.0,29.0,00.0,39.0,31.8,28.7,0022.33,0011.61
2021-08-14 13:07:00,,0834.7,5.01,0.00,30.0,29.0,00.0,39.1,31.8,28.2,0021.72,0011.64
2021-08-14 13:08:00,,0834.7,5.01,0.00,30.1,29.1,00.0,39.1,31.9,27.1,0021.44,0011.60
2021-08-14 13:09:00,,0834.6,4.99,0.00,30.1,29.1,00.0,39.1,31.9,27.1,0021.34,0011.53
2021-08-14 13:10:00,,0834.7,5.00,0.00,30.1,29.2,00.0,39.1,31.9,26.6,0021.17,0011.44
2021-08-14 13:11:00,,0834.7,5.01,0.00,30.1,29.2,00.0,39.1,31.9,25.4,0020.59,0011.36
2021-08-14 13:12:00,,0834.6,4.98,0.00,30.1,29.2,00.0,39.1,32.0,26.0,0020.21,0011.27
2021-08-14 13:13:00,,0834.7,5.01,0.00,30.2,29.1,00.0,39.2,31.9,25.9,0019.67,0011.14
2021-08-14 13:14:00,,0834.7,4.99,0.00,30.1,27.6,00.0,39.1,31.5,25.7,0019.16,0010.97
2021-08-14 13:15:00,,0834.7,4.99,0.00,29.9,26.1,00.0,39.1,31.0,25.6,0018.66,0010.81
2021-08-14 13:16:00,,0834.7,5.02,0.00,29.8,25.9,00.0,39.1,31.0,25.4,0017.96,0010.63
2021-08-14 13:17:00,,0834.7,5.01,0.00,29.7,26.3,00.0,39.0,31.1,25.4,0016.55,0010.42
2021-08-14 13:18:00,,0834.7,4.99,0.00,29.6,26.8,00.0,39.0,31.1,24.3,0016.35,0010.28
2021-08-14 13:19:00,,0834.7,5.00,0.00,29.6,27.2,00.0,38.9,31.2,24.6,0016.28,0010.16
2021-08-14 13:20:00,,0834.7,5.00,0.00,29.6,27.5,00.0,38.9,31.2,24.6,0015.74,0010.03
2021-08-14 13:21:00,,0834.7,5.00,0.00,29.6,27.8,00.0,38.9,31.3,25.4,0015.55,0010.00
2021-08-14 13:22:00,,0834.7,5.00,0.00,29.6,28.0,00.0,38.9,31.4,24.7,0015.48,0009.98
2021-08-14 13:23:00,,0834.7,4.99,0.00,29.7,28.2,00.0,38.8,31.4,24.7,0015.35,0009.93
2021-08-14 13:24:00,,0834.7,4.99,0.00,29.7,28.3,00.0,38.8,31.4,24.8,0014.57,0009.88
2021-08-14 13:25:00,,0834.7,5.01,0.00,29.7,28.4,00.0,38.8,31.5,24.9,0014.55,0009.85
2021-08-14 13:26:00,,0834.7,4.98,0.00,29.7,28.5,00.0,38.8,31.5,25.0,0014.69,0009.84
2021-08-14 13:27:00,,0834.7,5.01,0.00,29.8,28.6,00.0,38.8,31.6,25.5,0015.39,0009.80
2021-08-14 13:28:00,,0834.7,5.00,0.00,29.8,28.7,00.0,38.9,31.6,26.5,0015.51,0009.80
2021-08-14 13:29:00,,0834.7,4.99,0.00,29.8,28.7,00.0,38.9,31.6,26.4,0015.31,0009.80
2021-08-14 13:30:00,,0834.7,5.01,0.00,29.8,28.8,00.0,38.9,31.7,26.4,0015.89,0009.86
2021-08-14 13:31:00,,0834.7,5.00,0.00,29.9,28.9,00.0,38.9,31.7,26.8,0016.68,0009.90
2021-08-14 13:32:00,,0834.7,5.01,0.00,29.9,28.9,00.0,38.9,31.7,27.2,0017.69,0009.91
2021-08-14 13:33:00,,0834.7,4.98,0.00,29.9,29.0,00.0,38.9,31.8,27.8,0018.34,0009.94
2021-08-14 13:34:00,,0834.7,5.01,0.00,30.0,29.0,00.0,38.9,31.8,28.2,0018.73,0010.05
2021-08-14 13:35:00,,0834.7,4.99,0.00,30.0,29.0,00.0,39.0,31.8,28.0,0019.16,0010.11
2021-08-14 13:36:00,,0834.7,5.01,0.00,30.0,29.1,00.0,39.0,31.8,27.2,0019.08,0010.10
2021-08-14 13:37:00,,0834.7,4.99,0.00,30.0,29.1,00.0,39.0,31.9,26.8,0019.02,0010.10
2021-08-14 13:38:00,,0834.7,5.00,0.00,30.1,29.2,00.0,39.0,31.9,26.6,0018.43,0010.11
2021-08-14 13:39:00,,0834.7,4.99,0.00,30.1,29.2,00.0,39.1,31.9,26.2,0018.72,0010.09
2021-08-14 13:40:00,,0834.7,5.00,0.00,30.1,29.2,00.0,39.1,31.9,26.5,0019.44,0010.06
2021-08-14 13:41:00,,0834.7,5.01,0.00,30.1,28.2,00.0,39.1,31.7,26.6,0019.40,0010.04
2021-08-14 13:42:00,,0834.7,5.00,0.00,29.9,26.5,00.0,39.0,31.2,27.2,0019.26,0010.03
2021-08-14 13:43:00,,0834.7,4.99,0.00,29.8,26.1,00.0,39.0,31.1,27.8,0018.59,0010.00
2021-08-14 13:44:00,,0834.6,5.01,0.00,29.7,26.5,00.0,39.0,31.2,29.1,0018.00,0009.97
2021-08-14 13:45:00,,0834.7,4.99,0.00,29.7,27.0,00.0,38.9,31.2,30.0,0018.20,0009.91
2021-08-14 13:46:00,,0834.7,5.01,0.00,29.7,27.4,00.0,38.9,31.3,30.0,0018.15,0009.86
2021-08-14 13:47:00,,0834.7,5.00,0.00,29.7,27.7,00.0,38.9,31.3,29.8,0018.25,0009.84
2021-08-14 13:48:00,,0834.7,5.00,0.00,29.7,27.9,00.0,38.9,31.4,29.9,0018.25,0009.87
2021-08-14 13:49:00,,0834.7,5.00,0.00,29.7,28.1,00.0,38.9,31.4,28.7,0018.07,0009.86
2021-08-14 13:50:00,,0834.7,5.01,0.00,29.7,28.3,00.0,38.9,31.5,28.5,0018.19,0009.87
2021-08-14 13:51:00,,0834.7,4.99,0.00,29.8,28.4,00.0,38.9,31.5,28.5,0018.21,0009.94
2021-08-14 13:52:00,,0834.7,4.99,0.00,29.8,28.6,00.0,38.9,31.6,28.6,0017.82,0009.97
2021-08-14 13:53:00,,0834.7,5.01,0.00,29.8,28.7,00.0,38.9,31.6,29.1,0017.66,0010.04
2021-08-14 13:54:00,,0834.7,5.00,0.00,29.8,28.7,00.0,38.9,31.7,28.2,0017.52,0010.09
2021-08-14 13:55:00,,0834.7,5.00,0.00,29.9,28.8,00.0,38.9,31.7,28.0,0017.49,0010.08
2021-08-14 13:56:00,,0834.7,5.01,0.00,29.9,28.9,00.0,38.9,31.7,28.5,0016.86,0010.00
2021-08-14 13:57:00,,0834.7,4.99,0.00,29.9,29.0,00.0,38.9,31.8,29.2,0016.56,0009.96
2021-08-14 13:58:00,,0834.7,4.99,0.00,29.9,29.0,00.0,38.9,31.8,28.6,0016.86,0009.99
2021-08-14 13:59:00,,0834.7,5.01,0.00,30.0,29.1,00.0,39.0,31.8,28.1,0017.88,0009.94
